Regional Weather Roundup
Issued by NWS

Home | Current Version | Previous Version | Graphics & Text | Print | Product List | Glossary On
Versions: 1 2 3 4 5 6 7 8 9 10 11 12 13 14 15 16 17 18 19 20 21 22 23 24 25 26 27 28 29 30 31 32 33 34 35 36 37 38 39 40 41 42 43 44 45 46 47 48 49 50
000
ASUS43 KFSD 041302
RWRSD

WEATHER ROUNDUP FOR SOUTH DAKOTA
NATIONAL WEATHER SERVICE SIOUX FALLS SD
800 AM CDT MON MAY 04 2015

NOTE: "FAIR" INDICATES FEW OR NO CLOUDS BELOW 12,000 FEET WITH NO
SIGNIFICANT WEATHER AND/OR OBSTRUCTIONS TO VISIBILITY.


SDZ001>005-009-010-012>017-041400-
NORTHWEST AND NORTH CENTRAL SOUTH DAKOTA

CITY           SKY/WX    TMP DP  RH WIND       PRES   REMARKS
BUFFALO          N/A     47  29  49 SE14      30.11R
FAITH            N/A     49  24  37 S7        30.20R
MOBRIDGE       CLOUDY    48  30  49 CALM      30.18R
$$

SDZ012>016-024>037-041>051-057-063-072>074-041400-
SOUTHWEST AND SOUTH CENTRAL SOUTH DAKOTA

CITY           SKY/WX    TMP DP  RH WIND       PRES   REMARKS
RAPID CTY ARPT RAIN      44  41  89 W5        30.21R FOG
PIERRE         CLOUDY    49  27  42 CALM      30.18R
CUSTER         CLOUDY    37  34  89 E7        30.18R
ELLSWORTH AFB  LGT RAIN  44  42  94 S6        30.21
PHILIP         CLOUDY    49  30  48 CALM      30.19R
PINE RIDGE     CLOUDY    48  36  63 E6        30.17R
WINNER         FAIR      51  28  41 CALM      30.18R
$$

SDZ004>011-016>023-039-040-041400-
NORTHEAST SOUTH DAKOTA

CITY           SKY/WX    TMP DP  RH WIND       PRES   REMARKS
ABERDEEN       SUNNY     46  31  55 N5        30.19S
WATERTOWN      SUNNY     46  32  58 N5        30.16S
BROOKINGS      SUNNY     50  28  43 NE5       30.16S
SISSETON         N/A     49  31  49 N6        30.17S
$$

SDZ017-020-022-023-036>040-048>070-041400-
SOUTHEAST SOUTH DAKOTA

CITY           SKY/WX    TMP DP  RH WIND       PRES   REMARKS
SIOUX FALLS    PTSUNNY   50  30  46 NE8       30.14R
HURON          SUNNY     44  30  57 NW5       30.17R
MITCHELL       SUNNY     48  34  58 NE9       30.16R
YANKTON        PTSUNNY   54  28  37 N12       30.11S
$$

ABBREVIATIONS USED IN REMARKS
   TC - TEMPERATURE IN CELSIUS
  WCI - WIND CHILL INDEX
   HX - HEAT INDEX
  VSB - VISIBILITY



USA.gov is the U.S. government's official web portal to all federal, state and local government web resources and services.